Content
SEND FEEDBACK

Daily
Averages
Monthly
Summary
United States of America

PLATTE, SOUTH DAKOTA


Home > North America > United States > South Dakota
Elevation: 1699 feet     Latitude: 43 30N     Longitude: 099 04W

WEATHER
 
SELECT A DAY
Number of Records: 186,981;   Date Range: 1/1/95 - 11/19/14
 
SHARE

PRINT THIS DATA

[ ← Previous Day ]
WEATHER ALMANAC - NOVEMBER 5, 2013
[ Next Day → ]
[ °C ]   °F
Weather ElementAverageHighLow
Temperature32.4 °F36 °F (5:52 am)30 °F (10:52 pm)
Dewpoint27.6 °F30 °F (11:52 am)23 °F (5:52 am)
Humidity83 %92 % (11:52 am)59 % (5:52 am)
Barometer30.21 in30.27 in (8:52 am)30.17 in (4:52 am)
Wind Speed8.4 mph12.7 mph (10:52 am)
Weather ElementAverage
Wind DirectionSSE (144.3 °)

Weather ElementTotal
Precipitation0.32 in
Heating Degree Days32 (Base 65)
Averaged from 23 records on November 5, 2013
WEATHER CONDITIONS BREAKOUT
WIND DIRECTION BREAKOUT
WEATHER BY HOUR - NOVEMBER 5, 2013
[ °C ]   °F
Local TimeTemperatureDewpointHumidityBarometerVisibilityWind DirectionWind SpeedGust SpeedPrecipitationEventsConditions
1:52 AM33.1 °F28.0 °F82 %30.19 inNE (40°)6.9 mph
2:52 AM35.1 °F27.0 °F72 %30.19 inNorth (10°)3.5 mph
3:52 AM35.1 °F26.1 °F70 %30.19 inNE (40°)5.8 mph
4:52 AM35.1 °F24.1 °F64 %30.17 inNE (40°)10.4 mph
5:52 AM36.0 °F23.0 °F59 %30.17 inENE (70°)8.1 mph
6:52 AM34.0 °F24.1 °F67 %30.19 inESE (110°)5.8 mph
7:52 AM35.1 °F23.0 °F61 %30.22 inENE (70°)5.8 mph
8:52 AM32.0 °F28.9 °F88 %30.27 inEast (90°)9.2 mph0.01 in
9:52 AM32.0 °F28.9 °F88 %30.26 inNE (40°)11.5 mph0.02 in
10:52 AM32.0 °F28.9 °F88 %30.26 inNE (50°)12.7 mph0.01 in
11:52 AM32.0 °F30.0 °F92 %30.25 inNE (40°)9.2 mph0.05 in
12:52 PM32.0 °F28.9 °F88 %30.22 inNNE (30°)12.7 mph0.03 in
1:52 PM32.0 °F28.9 °F88 %30.19 inNNE (30°)10.4 mph0.03 in
2:52 PM32.0 °F28.9 °F88 %30.17 inNNE (20°)11.5 mph0.02 in
3:52 PM32.0 °F28.9 °F88 %30.18 inNorth (10°)5.8 mph0.02 in
4:52 PM30.9 °F28.9 °F92 %30.19 inNorth (360°)9.2 mph0.04 in
5:52 PM30.9 °F28.9 °F92 %30.19 inNorth (360°)8.1 mph0.03 in
6:52 PM30.9 °F28.9 °F92 %30.22 inNNW (330°)4.6 mph0.03 in
7:52 PM30.9 °F28.9 °F92 %30.22 inNNW (340°)6.9 mph0.02 in
8:52 PM30.9 °F28.9 °F92 %30.22 inNW (310°)8.1 mph0.01 in
9:52 PM30.9 °F28.0 °F89 %30.22 inWNW (300°)9.2 mph
10:52 PM30.0 °F27.0 °F88 %30.23 inNW (310°)9.2 mph
11:52 PM30.0 °F27.0 °F88 %30.22 inNW (320°)8.1 mph
Hourly data recorded from K9V9, located miles away from Platte, South Dakota







STORIES FROM OUR PARTNERS